This is the latest recevied weather packets stored in our database for station/object DM4XI-13. If no packets are shown the sender has not sent any weather packets the latest 10 day(s).
| Time | Temp. | Humidity | Pressure | Rain* | Wind** | Luminosity | Snow |
|---|---|---|---|---|---|---|---|
| 1777170927 | 7.78° C | 53% | 1016.5 hPa | 0 mm | 0 m/s | 0 W/m² | - |
| 1777170866 | 7.78° C | 52% | 1016.6 hPa | 0 mm | 0 m/s | 0 W/m² | - |
| 1777170805 | 7.78° C | 52% | 1016.8 hPa | 0 mm | 0 m/s | 0 W/m² | - |
| 1777170744 | 7.78° C | 51% | 1016.6 hPa | 0 mm | 0 m/s | 0 W/m² | - |
| 1777170683 | 7.78° C | 51% | 1016.7 hPa | 0 mm | 0 m/s | 0 W/m² | - |
| 1777170622 | 7.78° C | 51% | 1016.5 hPa | 0 mm | 0 m/s | 0 W/m² | - |
| 1777170561 | 7.78° C | 50% | 1016.8 hPa | 0 mm | 0.89 m/s, 266° | 0 W/m² | - |
| 1777170500 | 7.78° C | 50% | 1016.6 hPa | 0 mm | 0.89 m/s, 305° | 0 W/m² | - |
| 1777170439 | 7.78° C | 50% | 1016.7 hPa | 0 mm | 0.89 m/s, 292° | 0 W/m² | - |
| 1777170378 | 7.78° C | 50% | 1016.7 hPa | 0 mm | 0.89 m/s, 300° | 0 W/m² | - |
| 1777170317 | 7.78° C | 51% | 1016.6 hPa | 0 mm | 0.45 m/s, 284° | 0 W/m² | - |
| 1777170256 | 7.78° C | 51% | 1016.8 hPa | 0 mm | 1.34 m/s, 300° | 0 W/m² | - |
| 1777170195 | 7.78° C | 51% | 1016.7 hPa | 0 mm | 0.45 m/s, 253° | 0 W/m² | - |
| 1777170134 | 7.78° C | 50% | 1016.5 hPa | 0 mm | 0 m/s | 0 W/m² | - |
| 1777170073 | 7.78° C | 51% | 1016.7 hPa | 0 mm | 0.45 m/s, 272° | 0 W/m² | - |
| 1777170012 | 7.78° C | 50% | 1016.5 hPa | 0 mm | 0.45 m/s, 255° | 0 W/m² | - |
| 1777169951 | 7.78° C | 50% | 1016.6 hPa | 0 mm | 0.45 m/s, 251° | 0 W/m² | - |
| 1777169890 | 8.33° C | 50% | 1016.7 hPa | 0 mm | 0.89 m/s, 259° | 0 W/m² | - |
| 1777169829 | 8.33° C | 50% | 1016.6 hPa | 0 mm | 0.45 m/s, 269° | 0 W/m² | - |
| 1777169768 | 8.33° C | 50% | 1016.5 hPa | 0 mm | 0.45 m/s, 278° | 0 W/m² | - |
| 1777169707 | 8.33° C | 50% | 1016.6 hPa | 0 mm | 0.89 m/s, 263° | 0 W/m² | - |
| 1777169646 | 8.33° C | 50% | 1016.6 hPa | 0 mm | 0.45 m/s, 243° | 0 W/m² | - |
| 1777169585 | 8.33° C | 50% | 1016.5 hPa | 0 mm | 0.89 m/s, 263° | 0 W/m² | - |
| 1777169524 | 8.33° C | 49% | 1016.6 hPa | 0 mm | 0.89 m/s, 294° | 0 W/m² | - |
| 1777169463 | 8.33° C | 49% | 1016.7 hPa | 0 mm | 0.89 m/s, 291° | 0 W/m² | - |
* Rain latest hour (hover to see other rain measurements)
** Current wind speed in m/s (hover to see current wind gust speed)